Time,TemperatureF,DewpointF,PressureIn,WindDirection,WindDirectionDegrees,WindSpeedMPH,WindSpeedGustMPH,Humidity,HourlyPrecipIn,Conditions,Clouds,dailyrainin,SoftwareType,DateUTC
2013-02-27 00:00:00,35.9,30.9,29.45,West,265,2.0,2.0,82,0.00,,,2.50,Wunderground v.1.15,2013-02-27 05:00:00,
2013-02-27 00:10:00,35.5,30.2,29.46,West,263,3.0,4.0,81,0.00,,,0.00,Wunderground v.1.15,2013-02-27 05:10:00,
2013-02-27 00:15:00,35.5,29.6,29.46,West,274,3.0,4.0,79,0.00,,,0.00,Wunderground v.1.15,2013-02-27 05:15:00,
2013-02-27 00:20:00,35.6,29.4,29.46,West,273,3.0,3.0,78,0.00,,,0.00,Wunderground v.1.15,2013-02-27 05:20:00,
2013-02-27 00:25:00,35.8,29.3,29.47,West,273,3.0,3.0,77,0.00,,,0.00,Wunderground v.1.15,2013-02-27 05:25:00,
2013-02-27 00:30:00,35.8,29.0,29.47,West,269,3.0,3.0,76,0.00,,,0.00,Wunderground v.1.15,2013-02-27 05:30:00,
2013-02-27 00:40:00,35.6,28.5,29.47,West,276,1.0,1.0,75,0.00,,,0.00,Wunderground v.1.15,2013-02-27 05:40:00,
2013-02-27 00:50:00,35.8,28.3,29.47,WSW,258,2.0,2.0,74,0.00,,,0.00,Wunderground v.1.15,2013-02-27 05:50:00,
2013-02-27 01:00:00,35.9,27.7,29.46,West,261,2.0,2.0,72,0.00,,,0.00,Wunderground v.1.15,2013-02-27 06:00:00,
2013-02-27 01:10:00,35.8,28.0,29.46,WNW,291,1.0,2.0,73,0.00,,,0.00,Wunderground v.1.15,2013-02-27 06:10:00,
2013-02-27 01:15:00,35.8,28.0,29.46,West,264,1.0,2.0,73,0.00,,,0.00,Wunderground v.1.15,2013-02-27 06:15:00,
2013-02-27 01:25:00,35.8,27.7,29.46,West,274,1.0,2.0,72,0.00,,,0.00,Wunderground v.1.15,2013-02-27 06:25:00,
2013-02-27 01:35:00,35.8,27.7,29.46,WNW,282,1.0,1.0,72,0.00,,,0.00,Wunderground v.1.15,2013-02-27 06:35:00,
2013-02-27 01:40:00,35.8,27.7,29.47,WNW,284,1.0,1.0,72,0.00,,,0.00,Wunderground v.1.15,2013-02-27 06:40:00,
2013-02-27 01:50:00,35.5,28.0,29.47,West,274,1.0,2.0,74,0.00,,,0.00,Wunderground v.1.15,2013-02-27 06:50:00,
2013-02-27 02:00:00,35.5,27.7,29.47,West,269,1.0,1.0,73,0.00,,,0.00,Wunderground v.1.15,2013-02-27 07:00:00,
2013-02-27 02:10:00,35.5,27.7,29.47,NE,36,1.0,3.0,73,0.00,,,0.00,Wunderground v.1.15,2013-02-27 07:10:00,
2013-02-27 02:15:00,35.6,27.5,29.47,West,274,2.0,3.0,72,0.00,,,0.00,Wunderground v.1.15,2013-02-27 07:15:00,
2013-02-27 02:25:00,35.6,27.5,29.46,West,274,2.0,2.0,72,0.00,,,0.00,Wunderground v.1.15,2013-02-27 07:25:00,
2013-02-27 02:30:00,35.6,27.5,29.47,West,274,1.0,2.0,72,0.00,,,0.00,Wunderground v.1.15,2013-02-27 07:30:00,
2013-02-27 02:40:00,35.5,27.4,29.46,West,269,2.0,2.0,72,0.00,,,0.00,Wunderground v.1.15,2013-02-27 07:40:00,
2013-02-27 02:50:00,35.5,28.0,29.46,West,261,1.0,3.0,74,0.00,,,0.00,Wunderground v.1.15,2013-02-27 07:50:00,
2013-02-27 03:00:00,35.3,27.5,29.47,WNW,290,1.0,1.0,73,0.00,,,0.00,Wunderground v.1.15,2013-02-27 08:00:00,
2013-02-27 03:10:00,35.3,27.5,29.47,West,269,1.0,1.0,73,0.00,,,0.00,Wunderground v.1.15,2013-02-27 08:10:00,
2013-02-27 03:15:00,35.3,27.2,29.47,West,264,1.0,1.0,72,0.00,,,0.00,Wunderground v.1.15,2013-02-27 08:15:00,
2013-02-27 03:25:00,35.2,27.1,29.47,WSW,252,2.0,2.0,72,0.00,,,0.00,Wunderground v.1.15,2013-02-27 08:25:00,
2013-02-27 03:30:00,35.2,27.1,29.46,West,275,2.0,3.0,72,0.00,,,0.00,Wunderground v.1.15,2013-02-27 08:30:00,
2013-02-27 03:40:00,34.9,26.4,29.46,West,264,2.0,3.0,71,0.00,,,0.00,Wunderground v.1.15,2013-02-27 08:40:00,
2013-02-27 03:50:00,34.7,26.3,29.46,West,266,3.0,3.0,71,0.00,,,0.01,Wunderground v.1.15,2013-02-27 08:50:00,
2013-02-27 04:00:00,34.4,26.3,29.47,West,275,2.0,2.0,72,0.00,,,0.01,Wunderground v.1.15,2013-02-27 09:00:00,
2013-02-27 04:10:00,34.3,26.2,29.48,NW,304,3.0,3.0,72,0.00,,,0.01,Wunderground v.1.15,2013-02-27 09:10:00,
2013-02-27 04:15:00,34.1,26.0,29.48,West,260,2.0,3.0,72,0.00,,,0.01,Wunderground v.1.15,2013-02-27 09:15:00,
2013-02-27 04:25:00,34.0,25.9,29.48,West,281,2.0,2.0,72,0.00,,,0.01,Wunderground v.1.15,2013-02-27 09:25:00,
2013-02-27 04:35:00,33.7,25.6,29.48,NNE,12,2.0,7.0,72,0.00,,,0.01,Wunderground v.1.15,2013-02-27 09:35:00,
2013-02-27 04:40:00,33.5,25.4,29.48,NNW,331,3.0,3.0,72,0.00,,,0.01,Wunderground v.1.15,2013-02-27 09:40:00,
2013-02-27 04:50:00,33.7,25.3,29.48,West,261,3.0,7.0,71,0.00,,,0.01,Wunderground v.1.15,2013-02-27 09:50:00,
2013-02-27 05:00:00,33.5,25.1,29.49,WSW,257,3.0,3.0,71,0.00,,,0.01,Wunderground v.1.15,2013-02-27 10:00:00,
2013-02-27 05:10:00,33.4,25.3,29.49,West,270,3.0,3.0,72,0.00,,,0.01,Wunderground v.1.15,2013-02-27 10:10:00,
2013-02-27 05:20:00,33.4,25.3,29.49,North,5,3.0,3.0,72,0.00,,,0.01,Wunderground v.1.15,2013-02-27 10:20:00,
2013-02-27 05:30:00,33.5,25.1,29.49,NNW,331,3.0,3.0,71,0.00,,,0.01,Wunderground v.1.15,2013-02-27 10:30:00,
2013-02-27 05:40:00,34.0,26.3,29.49,West,271,2.0,2.0,73,0.00,,,0.01,Wunderground v.1.15,2013-02-27 10:40:00,
2013-02-27 05:50:00,34.1,26.0,29.50,NNW,347,3.0,3.0,72,0.00,,,0.01,Wunderground v.1.15,2013-02-27 10:50:00,
2013-02-27 05:55:00,34.1,26.0,29.50,West,266,3.0,3.0,72,0.00,,,0.01,Wunderground v.1.15,2013-02-27 10:55:00,
2013-02-27 06:05:00,33.8,25.0,29.49,West,271,3.0,4.0,70,0.00,,,0.01,Wunderground v.1.15,2013-02-27 11:05:00,
2013-02-27 06:10:00,33.7,25.3,29.50,West,267,3.0,3.0,71,0.00,,,0.01,Wunderground v.1.15,2013-02-27 11:10:00,
2013-02-27 06:20:00,34.0,25.9,29.50,NNE,19,3.0,3.0,72,0.00,,,0.01,Wunderground v.1.15,2013-02-27 11:20:00,
2013-02-27 06:30:00,33.7,25.3,29.50,West,265,2.0,2.0,71,0.00,,,0.01,Wunderground v.1.15,2013-02-27 11:30:00,
2013-02-27 06:40:00,33.2,25.1,29.51,West,263,3.0,3.0,72,0.00,,,0.01,Wunderground v.1.15,2013-02-27 11:40:00,
2013-02-27 06:50:00,32.9,25.2,29.50,West,259,2.0,2.0,73,0.00,,,0.01,Wunderground v.1.15,2013-02-27 11:50:00,
2013-02-27 07:00:00,32.7,25.3,29.50,West,269,3.0,4.0,74,0.00,,,0.01,Wunderground v.1.15,2013-02-27 12:00:00,
2013-02-27 07:10:00,32.8,25.4,29.51,West,266,2.0,3.0,74,0.00,,,0.01,Wunderground v.1.15,2013-02-27 12:10:00,
2013-02-27 07:15:00,32.7,25.3,29.51,West,267,2.0,3.0,74,0.00,,,0.01,Wunderground v.1.15,2013-02-27 12:15:00,
2013-02-27 07:25:00,32.7,25.3,29.52,North,360,2.0,2.0,74,0.00,,,0.01,Wunderground v.1.15,2013-02-27 12:25:00,
2013-02-27 07:35:00,32.5,25.5,29.53,West,274,1.0,1.0,75,0.00,,,0.01,Wunderground v.1.15,2013-02-27 12:35:00,
2013-02-27 07:40:00,32.5,25.5,29.53,West,265,1.0,1.0,75,0.00,,,0.01,Wunderground v.1.15,2013-02-27 12:40:00,
2013-02-27 07:50:00,32.5,25.5,29.54,WSW,247,0.0,1.0,75,0.00,,,0.01,Wunderground v.1.15,2013-02-27 12:50:00,
2013-02-27 08:00:00,32.7,25.6,29.54,NNW,336,2.0,2.0,75,0.00,,,0.01,Wunderground v.1.15,2013-02-27 13:00:00,
2013-02-27 08:10:00,32.8,25.1,29.54,West,270,1.0,3.0,73,0.00,,,0.01,Wunderground v.1.15,2013-02-27 13:10:00,
2013-02-27 08:20:00,33.1,24.7,29.55,West,262,3.0,3.0,71,0.00,,,0.01,Wunderground v.1.15,2013-02-27 13:20:00,
2013-02-27 08:30:00,33.4,24.7,29.54,West,274,1.0,2.0,70,0.00,,,0.01,Wunderground v.1.15,2013-02-27 13:30:00,
2013-02-27 08:40:00,33.5,24.8,29.54,WSW,254,1.0,1.0,70,0.00,,,0.01,Wunderground v.1.15,2013-02-27 13:40:00,
2013-02-27 08:50:00,33.7,25.3,29.54,WNW,290,0.0,0.0,71,0.00,,,0.01,Wunderground v.1.15,2013-02-27 13:50:00,
2013-02-27 09:00:00,34.0,24.9,29.55,West,281,1.0,3.0,69,0.00,,,0.01,Wunderground v.1.15,2013-02-27 14:00:00,
2013-02-27 09:10:00,34.4,24.9,29.55,West,281,1.0,1.0,68,0.00,,,0.01,Wunderground v.1.15,2013-02-27 14:10:00,
2013-02-27 09:15:00,34.7,24.5,29.55,West,275,1.0,2.0,66,0.00,,,0.01,Wunderground v.1.15,2013-02-27 14:15:00,
2013-02-27 09:25:00,35.5,25.6,29.55,West,271,1.0,1.0,67,0.00,,,0.01,Wunderground v.1.15,2013-02-27 14:25:00,
2013-02-27 09:30:00,35.8,25.5,29.56,West,271,1.0,2.0,66,0.00,,,0.01,Wunderground v.1.15,2013-02-27 14:30:00,
2013-02-27 09:40:00,36.6,25.9,29.56,West,272,1.0,4.0,65,0.00,,,0.01,Wunderground v.1.15,2013-02-27 14:40:00,
2013-02-27 09:50:00,37.5,26.4,29.56,NNW,348,2.0,2.0,64,0.00,,,0.01,Wunderground v.1.15,2013-02-27 14:50:00,
2013-02-27 10:00:00,38.3,26.0,29.56,West,263,3.0,8.0,61,0.00,,,0.01,Wunderground v.1.15,2013-02-27 15:00:00,
2013-02-27 10:10:00,38.8,25.7,29.56,WSW,250,3.0,5.0,59,0.00,,,0.01,Wunderground v.1.15,2013-02-27 15:10:00,
2013-02-27 10:20:00,39.1,26.0,29.56,WSW,256,3.0,4.0,59,0.00,,,0.01,Wunderground v.1.15,2013-02-27 15:20:00,
2013-02-27 10:30:00,39.5,26.3,29.56,West,265,3.0,3.0,59,0.00,,,0.01,Wunderground v.1.15,2013-02-27 15:30:00,
2013-02-27 10:35:00,39.6,25.6,29.55,West,265,3.0,3.0,57,0.00,,,0.01,Wunderground v.1.15,2013-02-27 15:35:00,
2013-02-27 10:45:00,40.5,26.4,29.56,West,275,3.0,6.0,57,0.00,,,0.01,Wunderground v.1.15,2013-02-27 15:45:00,
2013-02-27 10:50:00,41.1,27.4,29.56,West,268,2.0,2.0,58,0.00,,,0.01,Wunderground v.1.15,2013-02-27 15:50:00,
2013-02-27 11:00:00,42.2,28.0,29.55,West,271,2.0,2.0,57,0.00,,,0.01,Wunderground v.1.15,2013-02-27 16:00:00,
2013-02-27 11:10:00,43.1,27.1,29.56,WNW,286,2.0,2.0,53,0.00,,,0.01,Wunderground v.1.15,2013-02-27 16:10:00,
2013-02-27 11:20:00,43.9,28.8,29.56,West,260,1.0,1.0,55,0.00,,,0.01,Wunderground v.1.15,2013-02-27 16:20:00,
2013-02-27 11:30:00,44.3,30.4,29.56,WNW,286,2.0,2.0,58,0.00,,,0.01,Wunderground v.1.15,2013-02-27 16:30:00,
2013-02-27 11:40:00,45.8,31.4,29.56,NW,308,1.0,2.0,57,0.00,,,0.01,Wunderground v.1.15,2013-02-27 16:40:00,
2013-02-27 11:45:00,46.0,31.6,29.56,West,269,1.0,6.0,57,0.00,,,0.01,Wunderground v.1.15,2013-02-27 16:45:00,
2013-02-27 11:55:00,46.5,32.9,29.55,North,350,1.0,1.0,59,0.00,,,0.01,Wunderground v.1.15,2013-02-27 16:55:00,
2013-02-27 12:00:00,46.8,32.8,29.55,WNW,282,1.0,1.0,58,0.00,,,0.01,Wunderground v.1.15,2013-02-27 17:00:00,
2013-02-27 12:10:00,47.0,30.7,29.55,SSE,163,1.0,1.0,53,0.00,,,0.01,Wunderground v.1.15,2013-02-27 17:10:00,
2013-02-27 12:20:00,47.6,31.3,29.54,NNW,329,2.0,2.0,53,0.00,,,0.01,Wunderground v.1.15,2013-02-27 17:20:00,
2013-02-27 12:30:00,48.3,31.0,29.54,NNW,348,1.0,1.0,51,0.00,,,0.01,Wunderground v.1.15,2013-02-27 17:30:00,
2013-02-27 12:35:00,48.5,32.6,29.54,NNE,28,2.0,3.0,54,0.00,,,0.01,Wunderground v.1.15,2013-02-27 17:35:00,
2013-02-27 12:45:00,49.2,34.2,29.53,North,9,1.0,1.0,56,0.00,,,0.01,Wunderground v.1.15,2013-02-27 17:45:00,
2013-02-27 12:55:00,49.6,33.2,29.53,NNW,342,1.0,1.0,53,0.00,,,0.01,Wunderground v.1.15,2013-02-27 17:55:00,
2013-02-27 13:00:00,49.4,32.0,29.53,West,263,1.0,2.0,51,0.00,,,0.01,Wunderground v.1.15,2013-02-27 18:00:00,
2013-02-27 13:10:00,49.5,34.0,29.52,WNW,293,2.0,2.0,55,0.00,,,0.01,Wunderground v.1.15,2013-02-27 18:10:00,
2013-02-27 13:20:00,49.4,32.0,29.52,WSW,255,2.0,2.0,51,0.00,,,0.01,Wunderground v.1.15,2013-02-27 18:20:00,
2013-02-27 13:25:00,48.6,30.3,29.53,NNE,23,2.0,2.0,49,0.00,,,0.01,Wunderground v.1.15,2013-02-27 18:25:00,
2013-02-27 13:30:00,48.0,30.7,29.53,WNW,294,2.0,2.0,51,0.00,,,0.01,Wunderground v.1.15,2013-02-27 18:30:00,
2013-02-27 13:40:00,48.5,31.2,29.52,NNW,330,1.0,1.0,51,0.00,,,0.01,Wunderground v.1.15,2013-02-27 18:40:00,
2013-02-27 13:50:00,48.8,31.5,29.52,West,267,2.0,4.0,51,0.00,,,0.01,Wunderground v.1.15,2013-02-27 18:50:00,
2013-02-27 14:00:00,49.5,31.6,29.51,North,360,2.0,2.0,50,0.00,,,0.01,Wunderground v.1.15,2013-02-27 19:00:00,
2013-02-27 14:10:00,50.2,31.8,29.52,NE,45,1.0,1.0,49,0.00,,,0.01,Wunderground v.1.15,2013-02-27 19:10:00,
2013-02-27 14:20:00,50.8,30.7,29.51,WSW,241,1.0,2.0,46,0.00,,,0.01,Wunderground v.1.15,2013-02-27 19:20:00,
2013-02-27 14:30:00,51.0,32.0,29.50,NE,40,1.0,1.0,48,0.00,,,0.01,Wunderground v.1.15,2013-02-27 19:30:00,
2013-02-27 14:40:00,51.0,30.4,29.50,West,261,1.0,1.0,45,0.00,,,0.01,Wunderground v.1.15,2013-02-27 19:40:00,
2013-02-27 14:45:00,51.1,31.0,29.51,SSW,206,2.0,2.0,46,0.00,,,0.01,Wunderground v.1.15,2013-02-27 19:45:00,
2013-02-27 14:55:00,51.0,31.5,29.51,North,11,1.0,2.0,47,0.00,,,0.01,Wunderground v.1.15,2013-02-27 19:55:00,
2013-02-27 15:00:00,51.1,30.5,29.51,North,355,1.0,1.0,45,0.00,,,0.01,Wunderground v.1.15,2013-02-27 20:00:00,
2013-02-27 15:10:00,51.9,31.7,29.51,ENE,73,1.0,2.0,46,0.00,,,0.01,Wunderground v.1.15,2013-02-27 20:10:00,
2013-02-27 15:20:00,51.3,30.1,29.51,West,279,2.0,2.0,44,0.00,,,0.01,Wunderground v.1.15,2013-02-27 20:20:00,
2013-02-27 15:30:00,50.5,29.4,29.51,WNW,294,2.0,3.0,44,0.00,,,0.01,Wunderground v.1.15,2013-02-27 20:30:00,
2013-02-27 15:40:00,51.0,29.8,29.51,NNE,32,1.0,4.0,44,0.00,,,0.01,Wunderground v.1.15,2013-02-27 20:40:00,
2013-02-27 15:50:00,51.0,28.7,29.51,NNE,24,2.0,2.0,42,0.00,,,0.01,Wunderground v.1.15,2013-02-27 20:50:00,
2013-02-27 16:00:00,51.1,28.2,29.50,NNE,23,1.0,4.0,41,0.00,,,0.01,Wunderground v.1.15,2013-02-27 21:00:00,
2013-02-27 16:05:00,51.0,26.9,29.50,WSW,258,1.0,4.0,39,0.00,,,0.01,Wunderground v.1.15,2013-02-27 21:05:00,
2013-02-27 16:15:00,51.4,26.6,29.50,West,276,1.0,2.0,38,0.00,,,0.01,Wunderground v.1.15,2013-02-27 21:15:00,
2013-02-27 16:25:00,51.9,27.1,29.50,ESE,107,1.0,1.0,38,0.00,,,0.01,Wunderground v.1.15,2013-02-27 21:25:00,
2013-02-27 16:35:00,51.3,26.5,29.50,WNW,289,2.0,3.0,38,0.00,,,0.01,Wunderground v.1.15,2013-02-27 21:35:00,
2013-02-27 16:40:00,51.3,25.2,29.50,NE,45,1.0,2.0,36,0.00,,,0.01,Wunderground v.1.15,2013-02-27 21:40:00,
2013-02-27 16:50:00,51.3,24.5,29.50,SSW,194,1.0,1.0,35,0.00,,,0.01,Wunderground v.1.15,2013-02-27 21:50:00,
2013-02-27 17:00:00,51.1,25.0,29.50,NW,318,1.0,1.0,36,0.00,,,0.01,Wunderground v.1.15,2013-02-27 22:00:00,
2013-02-27 17:10:00,50.8,25.4,29.50,West,269,1.0,1.0,37,0.00,,,0.01,Wunderground v.1.15,2013-02-27 22:10:00,
2013-02-27 17:20:00,50.5,25.2,29.51,WSW,253,2.0,2.0,37,0.00,,,0.01,Wunderground v.1.15,2013-02-27 22:20:00,
2013-02-27 17:30:00,49.6,23.0,29.51,WSW,254,1.0,2.0,35,0.00,,,0.01,Wunderground v.1.15,2013-02-27 22:30:00,
2013-02-27 17:35:00,49.5,25.5,29.51,South,190,1.0,2.0,39,0.00,,,0.01,Wunderground v.1.15,2013-02-27 22:35:00,
2013-02-27 17:45:00,48.9,24.4,29.52,ENE,62,2.0,2.0,38,0.00,,,0.01,Wunderground v.1.15,2013-02-27 22:45:00,
2013-02-27 17:50:00,48.6,24.7,29.53,SE,143,1.0,1.0,39,0.00,,,0.01,Wunderground v.1.15,2013-02-27 22:50:00,
2013-02-27 18:00:00,47.9,24.7,29.52,NW,325,1.0,1.0,40,0.00,,,0.01,Wunderground v.1.15,2013-02-27 23:00:00,
2013-02-27 18:10:00,46.8,24.9,29.53,West,278,1.0,1.0,42,0.00,,,0.01,Wunderground v.1.15,2013-02-27 23:10:00,
2013-02-27 18:20:00,46.2,24.3,29.54,West,275,1.0,1.0,42,0.00,,,0.01,Wunderground v.1.15,2013-02-27 23:20:00,
2013-02-27 18:30:00,45.7,23.9,29.54,NNW,333,1.0,1.0,42,0.00,,,0.01,Wunderground v.1.15,2013-02-27 23:30:00,
2013-02-27 18:40:00,45.2,23.4,29.54,West,259,1.0,1.0,42,0.00,,,0.01,Wunderground v.1.15,2013-02-27 23:40:00,
2013-02-27 18:50:00,44.6,25.6,29.55,NW,325,0.0,0.0,47,0.00,,,0.01,Wunderground v.1.15,2013-02-27 23:50:00,
2013-02-27 19:00:00,44.1,26.6,29.56,West,268,1.0,2.0,50,0.00,,,0.01,Wunderground v.1.15,2013-02-28 00:00:00,
2013-02-27 19:10:00,43.8,25.4,29.55,West,273,1.0,1.0,48,0.00,,,0.01,Wunderground v.1.15,2013-02-28 00:10:00,
2013-02-27 19:20:00,43.6,24.7,29.55,NE,35,1.0,1.0,47,0.00,,,0.01,Wunderground v.1.15,2013-02-28 00:20:00,
2013-02-27 19:30:00,43.3,24.9,29.55,WSW,258,1.0,1.0,48,0.00,,,0.01,Wunderground v.1.15,2013-02-28 00:30:00,
2013-02-27 19:35:00,43.2,25.8,29.55,North,10,1.0,1.0,50,0.00,,,0.01,Wunderground v.1.15,2013-02-28 00:35:00,
2013-02-27 19:45:00,42.8,25.4,29.55,West,271,1.0,1.0,50,0.00,,,0.01,Wunderground v.1.15,2013-02-28 00:45:00,
2013-02-27 19:55:00,42.6,25.2,29.56,West,272,2.0,2.0,50,0.00,,,0.01,Wunderground v.1.15,2013-02-28 00:55:00,
2013-02-27 20:05:00,42.5,25.6,29.56,West,273,2.0,4.0,51,0.00,,,0.01,Wunderground v.1.15,2013-02-28 01:05:00,
2013-02-27 20:10:00,42.5,26.1,29.56,West,263,1.0,1.0,52,0.00,,,0.01,Wunderground v.1.15,2013-02-28 01:10:00,
2013-02-27 20:20:00,42.5,26.1,29.57,WNW,284,1.0,1.0,52,0.00,,,0.01,Wunderground v.1.15,2013-02-28 01:20:00,
2013-02-27 20:30:00,42.2,25.8,29.56,West,271,1.0,2.0,52,0.00,,,0.01,Wunderground v.1.15,2013-02-28 01:30:00,
2013-02-27 20:35:00,42.2,26.3,29.57,WSW,257,1.0,3.0,53,0.00,,,0.01,Wunderground v.1.15,2013-02-28 01:35:00,
2013-02-27 20:45:00,42.1,26.6,29.57,West,263,1.0,2.0,54,0.00,,,0.01,Wunderground v.1.15,2013-02-28 01:45:00,
2013-02-27 20:55:00,42.1,27.1,29.56,WNW,299,1.0,1.0,55,0.00,,,0.01,Wunderground v.1.15,2013-02-28 01:55:00,
2013-02-27 21:00:00,41.9,26.0,29.56,WSW,252,2.0,2.0,53,0.00,,,0.01,Wunderground v.1.15,2013-02-28 02:00:00,
2013-02-27 21:10:00,41.9,26.9,29.55,West,280,2.0,4.0,55,0.00,,,0.01,Wunderground v.1.15,2013-02-28 02:10:00,
2013-02-27 21:20:00,41.3,27.6,29.55,WSW,257,3.0,3.0,58,0.00,,,0.01,Wunderground v.1.15,2013-02-28 02:20:00,
2013-02-27 21:30:00,40.8,28.8,29.56,West,261,2.0,5.0,62,0.00,,,0.01,Wunderground v.1.15,2013-02-28 02:30:00,
2013-02-27 21:40:00,40.1,28.9,29.56,North,5,3.0,3.0,64,0.00,,,0.01,Wunderground v.1.15,2013-02-28 02:40:00,
2013-02-27 21:50:00,39.5,29.1,29.56,West,280,3.0,3.0,66,0.00,,,0.01,Wunderground v.1.15,2013-02-28 02:50:00,
2013-02-27 21:55:00,39.5,29.4,29.56,WNW,283,3.0,4.0,67,0.00,,,0.01,Wunderground v.1.15,2013-02-28 02:55:00,
2013-02-27 22:05:00,39.2,29.5,29.54,WSW,258,2.0,5.0,68,0.00,,,0.01,Wunderground v.1.15,2013-02-28 03:05:00,
2013-02-27 22:10:00,39.1,29.1,29.54,West,271,3.0,3.0,67,0.00,,,0.01,Wunderground v.1.15,2013-02-28 03:10:00,
2013-02-27 22:20:00,38.8,28.8,29.54,West,261,3.0,7.0,67,0.00,,,0.01,Wunderground v.1.15,2013-02-28 03:20:00,
2013-02-27 22:30:00,38.9,28.1,29.53,West,273,4.0,4.0,65,0.00,,,0.01,Wunderground v.1.15,2013-02-28 03:30:00,
2013-02-27 22:40:00,38.9,27.8,29.53,WNW,286,3.0,3.0,64,0.00,,,0.01,Wunderground v.1.15,2013-02-28 03:40:00,
2013-02-27 22:45:00,38.8,27.7,29.53,NW,309,2.0,3.0,64,0.00,,,0.01,Wunderground v.1.15,2013-02-28 03:45:00,
2013-02-27 22:55:00,38.5,27.4,29.53,WNW,298,3.0,3.0,64,0.00,,,0.01,Wunderground v.1.15,2013-02-28 03:55:00,
2013-02-27 23:05:00,38.5,27.4,29.52,WNW,284,2.0,3.0,64,0.00,,,0.01,Wunderground v.1.15,2013-02-28 04:05:00,
2013-02-27 23:10:00,38.3,27.6,29.52,West,263,1.0,1.0,65,0.00,,,0.01,Wunderground v.1.15,2013-02-28 04:10:00,
2013-02-27 23:15:00,38.2,27.1,29.52,WSW,257,2.0,2.0,64,0.00,,,0.01,Wunderground v.1.15,2013-02-28 04:15:00,
2013-02-27 23:20:00,38.2,27.5,29.52,West,263,2.0,2.0,65,0.00,,,0.01,Wunderground v.1.15,2013-02-28 04:20:00,
2013-02-27 23:30:00,38.0,28.0,29.53,West,277,2.0,2.0,67,0.00,,,0.01,Wunderground v.1.15,2013-02-28 04:30:00,
2013-02-27 23:40:00,37.6,28.3,29.53,WNW,294,2.0,2.0,69,0.00,,,0.01,Wunderground v.1.15,2013-02-28 04:40:00,
2013-02-27 23:50:00,37.2,28.0,29.52,WNW,292,2.0,2.0,69,0.00,,,0.01,Wunderground v.1.15,2013-02-28 04:50:00,